[[{"header":{"parameterUnit":"m.s-1","parameterCategory":1,"la1":30.2991,"la2":30.254,"lo1":-89.0895,"lo2":-89.0444,"dy":0.0017,"dx":0.0017,"nx":28,"ny":28,"refTime":"2025-02-01T03:00:00:Z","depth":0,"parameterNumber":2,"parameterNumberName":"U-component_of_WINDS"},"data":[0,0,0,0,0,0,0,0,0,0,0,0,0,0,0,0,0,0,0,0,0,0,0,0,0,0,0,0,0,0,0,0,0,0,0,0,0,0,0,0,0,0,0,0,0,0,0,0,0,0,0,0,0,0,0,0,0,0,0.4587,0.4588,0,0.4683,0.4685,0.4686,0.4712,0.4711,0.4711,0.471,0.4813,0.4816,0.4819,0,0,0,0,0,0,0,0,0,0,0,0,0,0.4426,0.4429,0.4587,0.4588,0.4589,0.4683,0.4685,0.4686,0.4712,0.4711,0.4711,0.471,0.4812,0.4815,0.4819,0,0,0,0,0,0,0,0,0,0,0,0,0,0.4507,0.443,0.4587,0.4613,0.4617,0.4683,0.4685,0.4686,0.4712,0.4711,0.4711,0.471,0.481,0.4815,0.482,0.4867,0,0,0.4835,0.4837,0,0,0,0,0,0,0,0,0.4502,0.4513,0.4608,0.4612,0.4616,0.4685,0.4666,0.4747,0.4712,0.4676,0.471,0.4709,0.4771,0.4779,0.4799,0.4872,0.4876,0.4835,0.4838,0.484,0.4842,0,0,0,0,0,0,0,0.4496,0.4509,0.4625,0.461,0.4614,0.4621,0.4632,0.4681,0.4727,0.4679,0.4681,0.4692,0.4773,0.4794,0.4802,0.4878,0.4835,0.4839,0.4842,0.4844,0.4992,0.4993,0,0,0,0,0,0,0.4486,0.4504,0.4622,0.4628,0.4555,0.4625,0.4636,0.4663,0.4727,0.4736,0.4693,0.4693,0.4786,0.4796,0.4805,0.4864,0.484,0.4845,0.4848,0.4991,0.4992,0.4993,0,0,0,0,0,0,0.4482,0.4496,0.4618,0.4566,0.4582,0.4628,0.4659,0.4666,0.4687,0.4737,0.4746,0.4706,0.4786,0.4799,0.4851,0.4868,0.4847,0.4851,0.499,0.4992,0.4993,0.4981,0,0,0,0,0,0,0.4478,0.4495,0.4513,0.4567,0.4585,0.4662,0.466,0.4668,0.4695,0.4697,0.4752,0.476,0.4786,0.4843,0.4856,0.4874,0.4855,0.4989,0.4991,0.4992,0.498,0.4982,0.4984,0,0,0,0,0,0.4472,0.4507,0.4514,0.4528,0.4609,0.4662,0.4673,0.4701,0.4697,0.4715,0.4747,0.4759,0.4864,0.4849,0.4863,0.4883,0.4988,0.499,0.4992,0.498,0.4982,0.4984,0,0,0,0,0,0,0.4456,0.4515,0.4523,0.4576,0.4614,0.4667,0.4692,0.4703,0.4744,0.4744,0.4778,0.479,0.484,0.4867,0.4849,0.4931,0.4926,0.4931,0.4911,0.4914,0.4916,0.4908,0.4859,0,0,0,0,0,0.4458,0.4496,0.4546,0.4588,0.4607,0.4645,0.467,0.4688,0.4729,0.4746,0.4781,0.4821,0.4863,0.489,0.4931,0.4984,0.4996,0.5005,0.5006,0.5007,0.5012,0.504,0.5044,0.5001,0.5001,0.5001,0,0,0.4465,0.4501,0.4524,0.4586,0.4617,0.4656,0.4659,0.47,0.4729,0.4752,0.4803,0.483,0.4877,0.4929,0.4954,0.4953,0.5026,0.501,0.5011,0.5015,0.5043,0.5047,0.505,0.5002,0.5002,0.5002,0,0,0.4495,0.4527,0.4565,0.4596,0.4642,0.4668,0.4676,0.4727,0.4745,0.4797,0.4814,0.4849,0.4921,0.4953,0.4979,0.5019,0.5031,0.5031,0.504,0.5068,0.5071,0.5074,0.5087,0.5092,0.5035,0.5035,0.5035,0,0.4497,0.4556,0.4583,0.4623,0.465,0.467,0.4709,0.4738,0.4796,0.4814,0.4811,0.49,0.4934,0.4993,0.5002,0.5022,0.5033,0.5026,0.5068,0.5072,0.5075,0.5088,0.5093,0.5035,0.5035,0.5035,0.5035,0,0.4555,0.4595,0.462,0.4674,0.4703,0.4742,0.4776,0.4803,0.4818,0.4843,0.4894,0.4934,0.4983,0.4999,0.5015,0.506,0.5057,0.5061,0.5057,0.5078,0.5091,0.5096,0.5035,0.5035,0.5035,0.5035,0,0,0.458,0.4646,0.4655,0.4679,0.4731,0.4763,0.4802,0.4849,0.487,0.4909,0.4943,0.5002,0.5005,0.5034,0.5053,0.5077,0.5105,0.5078,0.508,0.5081,0.5155,0.5152,0.5157,0.5113,0.5114,0.5115,0.5151,0,0.4616,0.4687,0.4712,0.477,0.4807,0.4826,0.486,0.4895,0.492,0.4955,0.4982,0.5023,0.5024,0.5041,0.5066,0.5096,0.512,0.5094,0.5144,0.5146,0.5132,0.5164,0.5161,0.5194,0.5157,0.5157,0.5158,0,0.4669,0.4706,0.4767,0.4813,0.4829,0.486,0.4903,0.4936,0.4977,0.4992,0.5023,0.5041,0.5083,0.5075,0.5133,0.5115,0.5137,0.5154,0.5156,0.5162,0.5153,0.5171,0.5205,0.521,0.5166,0.5166,0.5165,0,0.468,0.4746,0.479,0.481,0.4865,0.4885,0.4909,0.4948,0.4974,0.5012,0.5029,0.5072,0.5095,0.5128,0.5157,0.5149,0.5211,0.5207,0.5226,0.5225,0.5239,0.5237,0.5277,0.5253,0.5253,0.5253,0.5253,0,0.4718,0.4754,0.4795,0.4823,0.4864,0.4892,0.4932,0.4957,0.4992,0.5024,0.5044,0.5074,0.511,0.5145,0.5167,0.5211,0.5222,0.5236,0.5242,0.5234,0.5232,0.5249,0.5248,0.5254,0.5254,0.5254,0.5253,0,0.4737,0.4766,0.4816,0.4862,0.4875,0.4903,0.4943,0.497,0.4994,0.5035,0.5047,0.5085,0.5127,0.5158,0.5213,0.5228,0.5274,0.5281,0.526,0.5263,0.528,0.5278,0.5332,0.534,0.5311,0.5311,0.5311,0,0.4759,0.4788,0.4836,0.4859,0.4882,0.4918,0.4944,0.4972,0.4998,0.5045,0.5066,0.5109,0.5145,0.5211,0.5244,0.5286,0.5293,0.5308,0.5299,0.529,0.5292,0.529,0.5292,0.531,0.531,0.531,0.531,0,0.4796,0.4808,0.4844,0.4884,0.4913,0.4946,0.498,0.4998,0.5032,0.506,0.5102,0.513,0.5184,0.5226,0.5271,0.5296,0.5309,0.5313,0.5319,0.5312,0.5299,0.5305,0.5263,0.5312,0.5311,0.5311,0.5311,0.5311,0.4817,0.4842,0.4879,0.4918,0.4946,0.4976,0.5003,0.503,0.5065,0.5111,0.5126,0.5169,0.5207,0.5268,0.5293,0.5327,0.5328,0.5337,0.534,0.5341,0.534,0.5293,0.5336,0.5336,0.5336,0.5336,0.5336,0,0.4853,0.4878,0.4913,0.4958,0.4988,0.4996,0.5033,0.5058,0.5095,0.5129,0.5163,0.5211,0.5251,0.5286,0.5328,0.5349,0.5356,0.5359,0.5358,0.5363,0.5338,0.5328,0.5352,0.5352,0.5352,0.5352,0.5352,0.5352,0.4876,0.4918,0.4934,0.4991,0.5015,0.5057,0.5077,0.5105,0.5132,0.5184,0.5217,0.5239,0.5273,0.5317,0.5354,0.5364,0.5378,0.538,0.539,0.5367,0.5365,0.5363,0.5353,0.5383,0.5383,0.5412,0.5412,0.5413]},{"header":{"parameterUnit":"m.s-1","parameterCategory":1,"la1":30.2991,"la2":30.254,"lo1":-89.0895,"lo2":-89.0444,"dy":0.0017,"dx":0.0017,"nx":28,"ny":28,"refTime":"2025-02-01T03:00:00:Z","depth":0,"parameterNumber":3,"parameterNumberName":"V-component_of_WINDS"},"data":[0,0,0,0,0,0,0,0,0,0,0,0,0,0,0,0,0,0,0,0,0,0,0,0,0,0,0,0,0,0,0,0,0,0,0,0,0,0,0,0,0,0,0,0,0,0,0,0,0,0,0,0,0,0,0,0,0,0,1.2455,1.2454,0,1.2362,1.2361,1.236,1.2352,1.2353,1.2354,1.2355,1.2254,1.2251,1.2247,0,0,0,0,0,0,0,0,0,0,0,0,0,1.262,1.2617,1.2455,1.2454,1.2452,1.2362,1.2361,1.236,1.2352,1.2353,1.2355,1.2356,1.2255,1.2251,1.2247,0,0,0,0,0,0,0,0,0,0,0,0,0,1.254,1.2616,1.2455,1.2438,1.2436,1.2362,1.2361,1.2359,1.2352,1.2353,1.2355,1.2356,1.2257,1.2252,1.2246,1.2182,0,0,1.2229,1.2227,0,0,0,0,0,0,0,0,1.2544,1.2534,1.2442,1.2439,1.2436,1.237,1.2382,1.2299,1.2352,1.2383,1.2355,1.2357,1.2291,1.2283,1.2262,1.2177,1.2173,1.2229,1.2226,1.2223,1.2222,0,0,0,0,0,0,0,1.255,1.2538,1.2418,1.244,1.2437,1.2433,1.2424,1.2366,1.233,1.2381,1.238,1.237,1.229,1.2267,1.226,1.2171,1.2229,1.2224,1.2221,1.2219,1.2028,1.2027,0,0,0,0,0,0,1.2559,1.2542,1.2421,1.2415,1.2495,1.2429,1.2418,1.239,1.233,1.2323,1.2368,1.237,1.2276,1.2266,1.2256,1.2177,1.2223,1.2218,1.2215,1.203,1.2028,1.2026,0,0,0,0,0,0,1.2563,1.2549,1.2424,1.2478,1.2462,1.2425,1.2393,1.2387,1.2365,1.2321,1.2314,1.2352,1.2277,1.2264,1.2201,1.2173,1.2216,1.2211,1.2032,1.2029,1.2027,1.2017,0,0,0,0,0,0,1.2568,1.255,1.2526,1.2478,1.246,1.2372,1.2391,1.2384,1.2356,1.2357,1.2304,1.2297,1.2277,1.2209,1.2195,1.2166,1.2206,1.2034,1.2031,1.2028,1.202,1.2015,1.201,0,0,0,0,0,1.2574,1.2526,1.2525,1.2511,1.2429,1.2371,1.236,1.234,1.2354,1.2329,1.2301,1.2298,1.2179,1.2203,1.2187,1.2156,1.2036,1.2032,1.2028,1.2022,1.2016,1.201,0,0,0,0,0,0,1.2569,1.2519,1.2518,1.2453,1.2417,1.237,1.2337,1.2334,1.2291,1.2293,1.2268,1.2256,1.2194,1.2169,1.2196,1.209,1.2108,1.2101,1.2109,1.2103,1.2098,1.2105,1.2202,0,0,0,0,0,1.2562,1.252,1.2477,1.2424,1.2406,1.2375,1.2349,1.2337,1.2297,1.2281,1.2248,1.2208,1.2161,1.2131,1.2085,1.2017,1.2004,1.1988,1.1983,1.1979,1.1973,1.1934,1.1926,1.2013,1.2013,1.2013,0,0,1.2543,1.2511,1.2486,1.2423,1.2393,1.2349,1.2362,1.2314,1.2281,1.2273,1.2212,1.2187,1.214,1.2074,1.2043,1.2051,1.1946,1.1974,1.1971,1.1967,1.1929,1.1921,1.1914,1.201,1.2011,1.2011,0,0,1.2488,1.246,1.2413,1.2383,1.2339,1.2319,1.2308,1.2261,1.2245,1.2184,1.2177,1.2136,1.2056,1.2023,1.1996,1.193,1.1926,1.1916,1.189,1.1853,1.1846,1.184,1.1815,1.1807,1.191,1.191,1.1909,0,1.2471,1.2406,1.2389,1.2342,1.2314,1.2307,1.2259,1.223,1.2172,1.2152,1.2162,1.2063,1.2031,1.1957,1.1941,1.1919,1.1905,1.1921,1.1849,1.1842,1.1836,1.1813,1.1804,1.1909,1.1909,1.1909,1.1909,0,1.2387,1.2342,1.2309,1.2256,1.2224,1.2177,1.2151,1.212,1.2112,1.209,1.2027,1.1989,1.1936,1.1918,1.1908,1.1843,1.1849,1.1854,1.1871,1.1827,1.1805,1.1796,1.1907,1.1908,1.1908,1.1908,0,0,1.2325,1.2264,1.2252,1.2228,1.2179,1.2143,1.2095,1.2046,1.202,1.198,1.1938,1.1872,1.1877,1.1846,1.1832,1.18,1.175,1.1809,1.1807,1.1799,1.1675,1.1671,1.1661,1.1747,1.1745,1.1744,1.1679,0,1.2264,1.218,1.2164,1.209,1.2048,1.2042,1.1999,1.1964,1.1943,1.1902,1.1878,1.1831,1.1841,1.1823,1.1791,1.1763,1.1724,1.1767,1.1706,1.1704,1.1718,1.1649,1.1645,1.1585,1.167,1.1668,1.1667,0,1.2181,1.2142,1.2066,1.2023,1.2005,1.1967,1.1921,1.1883,1.1842,1.1829,1.1796,1.1786,1.1734,1.1755,1.1682,1.1712,1.1686,1.1669,1.1666,1.1658,1.1683,1.1639,1.1565,1.1556,1.1653,1.1654,1.1655,0,1.2143,1.2071,1.2016,1.1996,1.1945,1.1919,1.1896,1.1858,1.1829,1.1788,1.1769,1.1721,1.1695,1.1657,1.1634,1.1652,1.1563,1.1582,1.1549,1.155,1.153,1.1532,1.145,1.1515,1.1515,1.1515,1.1515,0,1.2076,1.2029,1.1999,1.1965,1.1912,1.1893,1.184,1.1817,1.1783,1.1743,1.1734,1.1697,1.1669,1.1627,1.1608,1.1551,1.1539,1.1526,1.1521,1.1526,1.1528,1.1508,1.1511,1.1513,1.1513,1.1514,1.1514,0,1.2025,1.2003,1.1942,1.19,1.1888,1.1851,1.1814,1.1779,1.1759,1.1709,1.1696,1.1662,1.1613,1.1586,1.1524,1.1511,1.1447,1.1445,1.1461,1.1459,1.1427,1.143,1.133,1.1315,1.139,1.139,1.1389,0,1.1983,1.1947,1.1902,1.1876,1.1853,1.1811,1.1783,1.1762,1.1733,1.1684,1.1656,1.1606,1.1566,1.1486,1.1455,1.1407,1.1403,1.1372,1.1396,1.1402,1.1402,1.1404,1.14,1.1367,1.1366,1.1366,1.1365,0,1.1912,1.1903,1.1863,1.182,1.1787,1.1751,1.1716,1.1694,1.1668,1.1635,1.1586,1.1554,1.1492,1.1442,1.1392,1.1366,1.1361,1.1358,1.1348,1.1352,1.1363,1.1356,1.1448,1.136,1.1361,1.1361,1.1361,1.1361,1.1863,1.1831,1.1795,1.1751,1.1723,1.169,1.1657,1.1633,1.1592,1.1541,1.1531,1.1478,1.1438,1.1371,1.1344,1.1302,1.1308,1.1293,1.1289,1.1285,1.1284,1.1371,1.1292,1.1292,1.1292,1.1293,1.1293,0,1.1791,1.1767,1.1728,1.168,1.1645,1.1646,1.1607,1.1577,1.1532,1.1496,1.1457,1.14,1.1352,1.1319,1.127,1.1242,1.1238,1.123,1.1231,1.1225,1.1281,1.1295,1.1234,1.1234,1.1234,1.1234,1.1234,1.1234,1.1749,1.1695,1.1682,1.1614,1.159,1.154,1.1518,1.1488,1.1459,1.1397,1.1358,1.1337,1.1302,1.1251,1.1206,1.1197,1.1179,1.1171,1.1162,1.1215,1.1221,1.1227,1.124,1.1167,1.1167,1.1109,1.1108,1.1108]}]]